Meteo pe oră la Dabrowka

Astăzi, 14 Aprilie, Miercuri

Timp Temperatura Precipitaţii Vânt Presiune Umiditate
00:00 +1°C° 0.1 mm 3 m/s 748 mmHg 81%
01:00 +1°C° 0 mm 3 m/s 748 mmHg 78%
02:00 +1°C° 0.2 mm 3 m/s 748 mmHg 84%
03:00 0°C° 0.2 mm 3 m/s 748 mmHg 91%
04:00 0°C° 0.2 mm 3 m/s 748 mmHg 97%
05:00 +1°C° 0.3 mm 3 m/s 748 mmHg 93%
06:00 +1°C° 0.3 mm 3 m/s 748 mmHg 90%
07:00 +1°C° 0 mm 3 m/s 748 mmHg 87%
08:00 +1°C° 0.1 mm 4 m/s 748 mmHg 83%
09:00 +2°C° 0.1 mm 5 m/s 748 mmHg 80%
10:00 +2°C° 0.1 mm 5 m/s 748 mmHg 76%
11:00 +3°C° 0.2 mm 5 m/s 748 mmHg 70%
12:00 +5°C° 0.2 mm 5 m/s 748 mmHg 65%
13:00 +5°C° 0.2 mm 5 m/s 747 mmHg 60%
14:00 +5°C° 0.2 mm 5 m/s 747 mmHg 60%
15:00 +5°C° 0.2 mm 5 m/s 747 mmHg 59%
16:00 +5°C° 0.2 mm 5 m/s 747 mmHg 59%
17:00 +4°C° 0.1 mm 4 m/s 747 mmHg 64%
18:00 +3°C° 0.1 mm 4 m/s 747 mmHg 69%
19:00 +3°C° 0.1 mm 3 m/s 747 mmHg 74%
20:00 +2°C° 0 mm 3 m/s 747 mmHg 78%
21:00 +2°C° 0 mm 3 m/s 747 mmHg 82%
22:00 +2°C° 0 mm 3 m/s 747 mmHg 85%
23:00 +1°C° 0 mm 3 m/s 747 mmHg 85%

Mâine, 15 Aprilie, Joi

Timp Temperatura Precipitaţii Vânt Presiune Umiditate
00:00 +1°C° 0 mm 3 m/s 747 mmHg 86%
01:00 +1°C° 0 mm 3 m/s 747 mmHg 86%
02:00 +1°C° 0 mm 3 m/s 747 mmHg 88%
03:00 -1°C° 0 mm 4 m/s 747 mmHg 89%
04:00 -1°C° 0 mm 4 m/s 747 mmHg 91%
05:00 -1°C° 0.2 mm 4 m/s 747 mmHg 93%
06:00 -1°C° 0.2 mm 4 m/s 747 mmHg 95%
07:00 -1°C° 0.2 mm 5 m/s 747 mmHg 97%
08:00 -1°C° 0.5 mm 5 m/s 747 mmHg 97%
09:00 -1°C° 0.5 mm 5 m/s 747 mmHg 97%
10:00 -1°C° 0.5 mm 5 m/s 747 mmHg 97%
11:00 -1°C° 0.7 mm 5 m/s 747 mmHg 97%
12:00 -1°C° 0.7 mm 5 m/s 747 mmHg 97%
13:00 -1°C° 0.7 mm 5 m/s 747 mmHg 97%
14:00 -1°C° 0.6 mm 5 m/s 746 mmHg 97%
15:00 -1°C° 0.6 mm 5 m/s 746 mmHg 98%
16:00 -1°C° 0.6 mm 5 m/s 746 mmHg 98%
17:00 -1°C° 0.7 mm 5 m/s 746 mmHg 98%
18:00 -1°C° 0.7 mm 5 m/s 746 mmHg 98%
19:00 -1°C° 0.7 mm 4 m/s 746 mmHg 98%
20:00 -1°C° 0.3 mm 4 m/s 746 mmHg 98%
21:00 -1°C° 0.3 mm 4 m/s 746 mmHg 98%
22:00 0°C° 0.3 mm 3 m/s 746 mmHg 98%
23:00 0°C° 0.2 mm 3 m/s 745 mmHg 98%

Poimâine, 16 Aprilie, Vineri

Timp Temperatura Precipitaţii Vânt Presiune Umiditate
00:00 0°C° 0.2 mm 3 m/s 745 mmHg 98%
01:00 0°C° 0.2 mm 3 m/s 745 mmHg 98%
02:00 0°C° 0.2 mm 3 m/s 745 mmHg 98%
03:00 0°C° 0.2 mm 3 m/s 745 mmHg 98%
04:00 0°C° 0.2 mm 3 m/s 745 mmHg 98%
05:00 0°C° 0.3 mm 3 m/s 745 mmHg 98%
06:00 0°C° 0.3 mm 3 m/s 745 mmHg 99%
07:00 0°C° 0.3 mm 3 m/s 745 mmHg 99%
08:00 0°C° 0.3 mm 3 m/s 745 mmHg 99%
09:00 0°C° 0.3 mm 3 m/s 746 mmHg 99%
10:00 +1°C° 0.3 mm 3 m/s 746 mmHg 99%
11:00 +1°C° 0.2 mm 3 m/s 746 mmHg 99%
12:00 +1°C° 0.2 mm 3 m/s 746 mmHg 98%
13:00 +2°C° 0.2 mm 3 m/s 746 mmHg 98%
14:00 +2°C° 0.2 mm 3 m/s 746 mmHg 98%
15:00 +3°C° 0.2 mm 2 m/s 746 mmHg 98%
16:00 +4°C° 0.2 mm 2 m/s 746 mmHg 98%
17:00 +3°C° 0.1 mm 2 m/s 746 mmHg 99%
18:00 +3°C° 0.1 mm 2 m/s 746 mmHg 99%
19:00 +3°C° 0.1 mm 2 m/s 747 mmHg 99%
20:00 +3°C° 0.1 mm 2 m/s 747 mmHg 99%
21:00 +3°C° 0.1 mm 2 m/s 747 mmHg 99%
22:00 +3°C° 0.1 mm 2 m/s 747 mmHg 99%
23:00 +3°C° 0 mm 2 m/s 746 mmHg 99%

17 Aprilie, Sâmbătă

Timp Temperatura Precipitaţii Vânt Presiune Umiditate
00:00 +3°C° 0 mm 2 m/s 746 mmHg 99%
01:00 +3°C° 0 mm 2 m/s 746 mmHg 99%
02:00 +3°C° 0.2 mm 2 m/s 746 mmHg 99%
03:00 +3°C° 0.2 mm 2 m/s 746 mmHg 99%
04:00 +3°C° 0.2 mm 2 m/s 746 mmHg 99%
05:00 +3°C° 0.4 mm 2 m/s 746 mmHg 99%
06:00 +2°C° 0.4 mm 3 m/s 746 mmHg 99%
07:00 +3°C° 0.4 mm 3 m/s 746 mmHg 98%
08:00 +3°C° 0.2 mm 3 m/s 746 mmHg 98%
09:00 +3°C° 0.2 mm 3 m/s 746 mmHg 98%
10:00 +3°C° 0.2 mm 3 m/s 746 mmHg 98%
11:00 +4°C° 0.1 mm 3 m/s 746 mmHg 98%
12:00 +4°C° 0.1 mm 3 m/s 746 mmHg 98%
13:00 +4°C° 0.1 mm 3 m/s 746 mmHg 98%
14:00 +6°C° 0 mm 2 m/s 746 mmHg 97%
15:00 +6°C° 0 mm 2 m/s 746 mmHg 97%
16:00 +6°C° 0 mm 2 m/s 745 mmHg 96%
17:00 +6°C° 0 mm 2 m/s 745 mmHg 97%
18:00 +6°C° 0 mm 2 m/s 745 mmHg 97%
19:00 +6°C° 0 mm 2 m/s 745 mmHg 98%
20:00 +6°C° 0 mm 2 m/s 745 mmHg 98%
21:00 +5°C° 0 mm 2 m/s 745 mmHg 98%
22:00 +5°C° 0 mm 2 m/s 745 mmHg 98%
23:00 +5°C° 0.2 mm 2 m/s 745 mmHg 99%

18 Aprilie, Duminică

Timp Temperatura Precipitaţii Vânt Presiune Umiditate
00:00 +5°C° 0.2 mm 2 m/s 745 mmHg 99%
01:00 +5°C° 0.2 mm 2 m/s 745 mmHg 99%
02:00 +5°C° 0.1 mm 2 m/s 745 mmHg 99%
03:00 +6°C° 0.1 mm 1 m/s 745 mmHg 99%
04:00 +6°C° 0.1 mm 1 m/s 744 mmHg 99%
05:00 +6°C° 0 mm 1 m/s 745 mmHg 98%
06:00 +7°C° 0 mm 1 m/s 745 mmHg 97%
07:00 +6°C° 0 mm 2 m/s 745 mmHg 97%
08:00 +7°C° 0 mm 2 m/s 745 mmHg 91%
09:00 +7°C° 0 mm 2 m/s 745 mmHg 86%
10:00 +8°C° 0 mm 2 m/s 745 mmHg 80%
11:00 +9°C° 0.1 mm 3 m/s 745 mmHg 77%
12:00 +9°C° 0.1 mm 3 m/s 745 mmHg 74%
13:00 +10°C° 0.1 mm 3 m/s 745 mmHg 71%
14:00 +10°C° 0 mm 3 m/s 745 mmHg 72%
15:00 +10°C° 0 mm 3 m/s 745 mmHg 73%
16:00 +10°C° 0 mm 2 m/s 745 mmHg 75%
17:00 +9°C° 0 mm 2 m/s 745 mmHg 78%
18:00 +8°C° 0 mm 2 m/s 745 mmHg 82%
19:00 +7°C° 0 mm 2 m/s 745 mmHg 85%
20:00 +7°C° 0 mm 2 m/s 745 mmHg 86%
21:00 +7°C° 0 mm 2 m/s 745 mmHg 87%
22:00 +7°C° 0 mm 2 m/s 745 mmHg 88%
23:00 +7°C° 0 mm 2 m/s 745 mmHg 88%

19 Aprilie, Luni

Timp Temperatura Precipitaţii Vânt Presiune Umiditate
00:00 +7°C° 0 mm 2 m/s 745 mmHg 88%
01:00 +7°C° 0 mm 2 m/s 745 mmHg 88%
02:00 +8°C° 0.1 mm 1 m/s 745 mmHg 88%
03:00 +8°C° 0.1 mm 1 m/s 745 mmHg 89%
04:00 +8°C° 0.1 mm 1 m/s 744 mmHg 90%
05:00 +8°C° 0.1 mm 1 m/s 744 mmHg 90%
06:00 +8°C° 0.1 mm 1 m/s 744 mmHg 90%
07:00 +7°C° 0.1 mm 2 m/s 744 mmHg 89%
08:00 +7°C° 0.2 mm 2 m/s 744 mmHg 89%
09:00 +8°C° 0.2 mm 2 m/s 744 mmHg 89%
10:00 +8°C° 0.2 mm 3 m/s 744 mmHg 89%
11:00 +8°C° 0.3 mm 3 m/s 744 mmHg 89%
12:00 +8°C° 0.3 mm 3 m/s 744 mmHg 90%
13:00 +8°C° 0.3 mm 3 m/s 744 mmHg 91%
14:00 +8°C° 0.2 mm 3 m/s 743 mmHg 92%
15:00 +8°C° 0.2 mm 3 m/s 743 mmHg 92%
16:00 +7°C° 0.2 mm 3 m/s 743 mmHg 93%
17:00 +7°C° 0.1 mm 3 m/s 743 mmHg 94%
18:00 +7°C° 0.1 mm 2 m/s 743 mmHg 95%
19:00 +7°C° 0.1 mm 2 m/s 743 mmHg 96%
20:00 +7°C° 0 mm 2 m/s 743 mmHg 96%
21:00 +7°C° 0 mm 2 m/s 743 mmHg 96%
22:00 +7°C° 0 mm 2 m/s 743 mmHg 96%
23:00 +7°C° 0 mm 2 m/s 743 mmHg 96%
Arată mai mult

Formular de consimțământ

Meteoprog și furnizorii noștri de servicii pot stoca și accesa date personale, precum cookies, identificatori de dispozitiv sau alte tehnologii similare pe dispozitivul dumneavoastră și procesa astfel de date pentru a personaliza conținutul și reclamele, dar și pentru a oferi caracteristici de social media și pentru a analiza traficul.

  • Stocarea și/sau accesarea informațiilor pe dispozitivul dumneavoastră

    Cookies, identificatori de dispozitiv sau alte informații pot fi stocate sau accesate pe dispozitiv în scopurile indicate mai sus.

  • Reclame și conținut personalizat, evaluarea reclamelor și a conținutului, informații despre audiențe și dezvoltarea produselor

    Reclamele și conținutul pot fi personalizate pe baza unui profil. Pot fi adăugate date suplimentare pentru a personaliza mai bine reclamele și conținutul. Performanța reclamelor și conținutului poate fi măsurată. Pot fi obținute informații despre utilizatorii care au văzut reclamele și conținutul. Aceste date pot fi utilizate pentru a dezvolta sau îmbunătăți experiența utilizatorilor, sistemele și software-ul.

Dând clic pe ‘Sunt de acord’, permiteți utilizarea cookie-urilor menționate, a identificatorilor de dispozitiv, balizelor web sau altor tehnologii similare. Setările pot fi modificate din browser-ul dispozitivului dumneavoastră.

În anumite scopuri, interesele legitime pot prima asupra consimțământului. Puteți citi mai multe informații în acest sens în Politica privind Confidențialitatea Datelor și Cookie.